DELTA 1 DEB, 7041

Orbit data source: Space-Track

DELTA 1 DEB, 7041 is space debris in SSO originally from a launch on Tue, 06 Nov 1973 UTC launched from the Air Force Western Test Range (AFWTR). Debris objects in space refer to the collection of defunct objects orbiting the Earth. Examples of debris include non-operational satellites, rocket bodies, and fragments generated from explosions, collisions, or faulty payload assembly.

Loading next visibility...
Identifier
7041, 1973-086AH
Orbit
SSO
Country
Flag of USUS
Related business
Manufacturer
Unknown
Mission
Spacecraft
Bus & Motor
Unknown
Mass
Unknown
Launch date (UTC)
1973-11-06 (52 years ago)
Launch vehicle
Unknown
Launch site
Air Force Western Test Range (AFWTR)
Object type
Payload
Rocket body
Debris
Shape & HBR
Unknown
Radar Cross Section
Medium (>0.1 m² and <1 m²)

Expand to show TLE details & history
Last TLE update: 7 hours ago

TLE from 7 hours ago
0 DELTA 1 DEB
1 07041U 73086AH  25261.96055733  .00000445  00000-0  35566-2 0  9990
2 07041 101.5880 294.6695 0181641  12.8023  55.8316 12.37587494321043
Epoch: 2025-09-18T23:03Z
TLE epoch observation values (Epoch: 2025-09-18T23:03:12.153Z)
Latitude
67.4087°
Longitude
-78.61187°
Altitude
1,449.605 km
Speed
7.179 km/s
True Right ascension
17h 41m 12s
True Declination
67° 17' 50"
Sunlit
Object was in daylight at epoch
Visualization orbit readout
Latitude
Unknown
Longitude
Unknown
Altitude
Unknown
Speed
Unknown
Apparent Right ascension
Unknown
Apparent Declination
Unknown
Sunlit
N/A
Visualization observer readout
Local Sidereal Time
23:06:16
Azimuth
Unknown
Elevation
Unknown
Doppler factor
Unknown
Orbital elements
Apogee altitude
1,657.76 km
Perigee altitude
1,371.038 km
Semi-major axis
7,892.536 km
Eccentricity
0.01816
Inclination
101.588°
RAAN
294.6695°
Arg. of periapsis
12.8023°
True anomaly
57.57574°
Mean anomaly
55.8316°
Eccentric anomaly
56.70146°
Mean motion
3.09541 °/min
Orbital period
116.3 mins
BSTAR
0.0035566
Loading maneuver chart data...
Computing Atmospheric mass density...
Loading historical data...
Loading historical data...
Loading historical data...
Loading historical data...
Loading historical data...
Loading historical data...
Loading historical data...

Documentation

Showing up to 5 results
|